Regional Weather Roundup
Issued by NWS

Home | Current Version | Previous Version | Text Only | Print | Product List | Glossary Off
Versions: 1 2 3 4 5 6 7 8 9 10 11 12 13 14 15 16 17 18 19 20 21 22 23 24 25 26 27 28

000
ASUS45 KSLC 180910
RWRUT

UTAH REGIONAL WEATHER ROUNDUP
NATIONAL WEATHER SERVICE SALT LAKE CITY UT
300 AM MDT FRI APR 18 2014

UTZ001>011-023>025-181000-

NORTHERN UTAH

CITY           SKY/WX    TMP DP  RH WIND       PRES   REMARKS
HILL AFB       CLOUDY    64  24  21 S20       29.82F
LOGAN          PTCLDY    44  37  76 NW5       29.80F
OGDEN          CLOUDY    66  26  22 S24       29.79F
PROVO AIRPORT  CLOUDY    55  32  41 SE14      29.90F
SALT LAKE CITY CLOUDY    64  26  23 S22G30    29.81S
VERNAL         PTCLDY    43  25  49 W6        29.99F
WENDOVER       CLOUDY    57  27  30 N3        29.78S
HEBER CITY     CLOUDY    43  30  61 CALM      29.93F
WEST JORDAN    CLEAR     59  36  41 SE22      29.86F

$$

UTZ012>022-026-027-181000-

SOUTHERN UTAH

CITY           SKY/WX    TMP DP  RH WIND       PRES   REMARKS
BRYCE CANYON   MOCLDY    31  24  75 CALM      30.12F
CEDAR CITY     CLOUDY    53  16  23 SW6       29.97F
MILFORD        CLOUDY    55  20  25 SW12      29.95F
MOAB/CYNLANDS  CLEAR     52  23  32 SE7       29.96F
PRICE          MOCLDY    46  20  35 N9        30.02S
ST GEORGE      CLOUDY    64  19  17 SE6       29.88F
KANAB            N/A     45  23  42 NE7       30.03F

$$

REGIONAL REPORTS     COLORADO/ARIZONA

CITY           SKY/WX    TMP DP  RH WIND       PRES   REMARKS
CRAIG, CO      PTCLDY    31  25  78 CALM      30.06F
GRAND JUNCTION CLEAR     45  27  49 E13       30.01F
RIFLE          CLEAR     37  27  67 CALM      30.09S
MONTROSE       CLEAR     45  27  49 NW3       30.10S
CORTEZ         CLEAR     33  23  66 CALM      30.11S
PAGE, AZ       MOCLDY    62  22  21 CALM      29.95F
GRAND CANYON   PTCLDY    33  15  47 CALM      30.09F
KINGMAN        CLOUDY    58  15  18 CALM      29.90F
FLAGSTAFF      CLOUDY    38  19  46 CALM      30.10F

$$

REGIONAL REPORTS    NEVADA/IDAHO/WYOMING

CITY           SKY/WX    TMP DP  RH WIND       PRES   REMARKS
LAS VEGAS, NV  CLOUDY    74  21  13 S8        29.76F
ELY            CLOUDY    53  21  28 S16       29.93F
ELKO           CLOUDY    56  41  57 W8        29.88R
POCATELLO, ID  CLEAR     56  39  53 SW23      29.81S
BURLEY         LGT RAIN  49  42  77 W15G30    29.85R
EVANSTON, WY   MOCLDY    48  25  40 SW14      29.95F
ROCK SPRINGS   PTCLDY    43  20  39 S9        29.96F

$$



USA.gov is the U.S. government's official web portal to all federal, state and local government web resources and services.